Time,TemperatureF,DewpointF,PressureIn,WindDirection,WindDirectionDegrees,WindSpeedMPH,WindSpeedGustMPH,Humidity,HourlyPrecipIn,Conditions,Clouds,dailyrainin,SoftwareType,DateUTC
2013-05-14 00:01:00,42.9,30.4,30.05,NNW,330,4.0,4.0,61,0.00,,---,0.00,VWS V14.01,2013-05-14 04:01:00,
2013-05-14 00:06:00,43.1,30.9,30.05,NNW,338,7.2,7.2,62,0.00,,---,0.00,VWS V14.01,2013-05-14 04:06:00,
2013-05-14 00:11:00,42.7,30.8,30.05,NNW,339,4.2,4.4,62,0.00,,---,0.00,VWS V14.01,2013-05-14 04:11:00,
2013-05-14 00:16:00,42.7,30.9,30.05,NNW,336,6.2,6.2,63,0.00,,---,0.00,VWS V14.01,2013-05-14 04:16:00,
2013-05-14 00:21:00,42.2,30.6,30.05,NW,308,6.0,6.0,63,0.00,,---,0.00,VWS V14.01,2013-05-14 04:21:00,
2013-05-14 00:26:00,42.9,31.1,30.05,NW,309,7.3,7.3,63,0.00,,---,0.00,VWS V14.01,2013-05-14 04:26:00,
2013-05-14 00:31:00,42.5,30.9,30.05,North,354,6.2,7.4,63,52.56,,---,0.00,VWS V14.01,2013-05-14 04:31:00,
2013-05-14 00:36:00,42.9,31.3,30.05,NW,325,7.3,7.8,63,0.00,,---,0.00,VWS V14.01,2013-05-14 04:36:00,
2013-05-14 00:41:00,42.9,31.3,30.05,North,350,6.8,6.9,63,0.00,,---,0.00,VWS V14.01,2013-05-14 04:41:00,
2013-05-14 00:46:00,42.4,31.0,30.05,NW,323,6.3,7.4,64,0.01,,---,0.01,VWS V14.01,2013-05-14 04:46:00,
2013-05-14 00:51:00,42.2,31.0,30.05,NW,325,4.7,5.6,64,0.01,,---,0.01,VWS V14.01,2013-05-14 04:51:00,
2013-05-14 00:55:00,41.9,31.1,30.05,NNW,336,5.6,6.0,65,0.01,,---,0.01,VWS V14.01,2013-05-14 04:55:00,
2013-05-14 01:00:00,41.7,31.0,30.05,NNW,346,5.8,8.7,66,0.01,,---,0.01,VWS V14.01,2013-05-14 05:00:00,
2013-05-14 01:05:00,42.5,32.1,30.05,North,349,3.7,3.9,66,0.00,,---,0.01,VWS V14.01,2013-05-14 05:05:00,
2013-05-14 01:10:00,41.9,31.5,30.05,NNW,340,7.3,7.3,66,0.01,,---,0.01,VWS V14.01,2013-05-14 05:10:00,
2013-05-14 01:15:00,42.3,32.1,30.05,NW,323,4.8,5.3,67,0.01,,---,0.01,VWS V14.01,2013-05-14 05:15:00,
2013-05-14 01:20:00,42.2,32.3,30.05,North,353,5.2,6.4,68,0.01,,---,0.01,VWS V14.01,2013-05-14 05:20:00,
2013-05-14 01:25:00,41.3,31.5,30.05,NW,321,4.9,7.8,68,0.01,,---,0.01,VWS V14.01,2013-05-14 05:25:00,
2013-05-14 01:30:00,41.2,31.4,30.05,NNW,336,5.4,5.4,68,0.01,,---,0.01,VWS V14.01,2013-05-14 05:30:00,
2013-05-14 01:35:00,42.1,32.3,30.05,NW,326,4.8,6.8,68,0.01,,---,0.01,VWS V14.01,2013-05-14 05:35:00,
2013-05-14 01:40:00,41.6,32.0,30.05,NNW,339,5.3,7.5,68,0.01,,---,0.01,VWS V14.01,2013-05-14 05:40:00,
2013-05-14 01:45:00,41.2,31.9,30.05,NNW,330,5.3,6.0,69,0.00,,---,0.01,VWS V14.01,2013-05-14 05:45:00,
2013-05-14 01:50:00,41.1,31.9,30.05,NNW,343,5.8,6.3,69,0.00,,---,0.01,VWS V14.01,2013-05-14 05:50:00,
2013-05-14 01:55:00,40.1,31.0,30.05,NNW,342,3.4,7.7,70,0.00,,---,0.01,VWS V14.01,2013-05-14 05:55:00,
2013-05-14 02:00:00,40.0,31.1,30.05,NW,311,4.8,6.1,70,0.00,,---,0.01,VWS V14.01,2013-05-14 06:00:00,
2013-05-14 02:05:00,40.4,31.6,30.05,NW,319,5.1,6.2,70,0.00,,---,0.01,VWS V14.01,2013-05-14 06:05:00,
2013-05-14 02:10:00,40.8,32.1,30.05,NW,312,2.9,4.7,71,0.00,,---,0.01,VWS V14.01,2013-05-14 06:10:00,
2013-05-14 02:15:00,40.4,31.9,30.05,NNW,335,3.7,4.5,71,0.00,,---,0.01,VWS V14.01,2013-05-14 06:15:00,
2013-05-14 02:20:00,40.2,31.9,30.05,NW,326,4.0,5.3,72,0.00,,---,0.01,VWS V14.01,2013-05-14 06:20:00,
2013-05-14 02:25:00,39.2,31.0,30.05,NW,322,4.3,6.0,72,0.00,,---,0.01,VWS V14.01,2013-05-14 06:25:00,
2013-05-14 02:30:00,39.6,31.5,30.05,NNW,347,3.7,4.3,72,0.00,,---,0.01,VWS V14.01,2013-05-14 06:30:00,
2013-05-14 02:35:00,40.0,32.1,30.05,NNW,329,4.3,5.9,73,0.00,,---,0.01,VWS V14.01,2013-05-14 06:35:00,
2013-05-14 02:40:00,39.9,32.0,30.05,NNW,340,4.8,5.4,73,0.00,,---,0.01,VWS V14.01,2013-05-14 06:40:00,
2013-05-14 02:45:00,39.4,31.5,30.05,NNW,335,6.2,6.5,73,52.72,,---,0.01,VWS V14.01,2013-05-14 06:45:00,
2013-05-14 02:50:00,39.9,32.2,30.05,NNW,335,6.6,6.6,74,0.00,,---,0.01,VWS V14.01,2013-05-14 06:50:00,
2013-05-14 02:55:00,38.5,30.9,30.06,NNW,332,5.7,7.1,74,0.00,,---,0.01,VWS V14.01,2013-05-14 06:55:00,
2013-05-14 03:00:00,39.6,32.1,30.06,NW,304,5.4,7.0,74,0.00,,---,0.01,VWS V14.01,2013-05-14 07:00:00,
2013-05-14 03:05:00,39.3,32.0,30.06,NW,322,6.3,7.6,75,0.00,,---,0.01,VWS V14.01,2013-05-14 07:05:00,
2013-05-14 03:10:00,38.5,31.4,30.06,NW,316,4.9,8.4,75,0.00,,---,0.01,VWS V14.01,2013-05-14 07:10:00,
2013-05-14 03:15:00,39.3,32.0,30.06,NW,315,9.6,9.7,75,0.00,,---,0.01,VWS V14.01,2013-05-14 07:15:00,
2013-05-14 03:20:00,39.5,32.0,30.06,NNW,339,6.3,10.4,74,0.00,,---,0.01,VWS V14.01,2013-05-14 07:20:00,
2013-05-14 03:25:00,39.3,32.0,30.06,NNW,342,4.0,5.8,75,0.00,,---,0.01,VWS V14.01,2013-05-14 07:25:00,
2013-05-14 03:30:00,38.8,31.6,30.06,North,349,4.0,4.0,75,0.00,,---,0.01,VWS V14.01,2013-05-14 07:30:00,
2013-05-14 03:35:00,38.0,30.9,30.06,NNW,330,4.6,4.9,75,0.00,,---,0.01,VWS V14.01,2013-05-14 07:35:00,
2013-05-14 03:40:00,38.5,31.5,30.06,NNW,340,3.8,4.5,76,0.00,,---,0.01,VWS V14.01,2013-05-14 07:40:00,
2013-05-14 03:44:00,52.4,31.8,29.99,West,278,0.0,0.0,45,0.00,,---,0.01,VWS V14.01,2013-05-14 07:44:00,
2013-05-14 03:45:00,39.2,32.2,30.06,NNW,330,4.3,5.8,76,0.00,,---,0.01,VWS V14.01,2013-05-14 07:45:00,
2013-05-14 03:50:00,38.5,31.5,30.05,WNW,300,4.9,5.0,76,0.00,,---,0.01,VWS V14.01,2013-05-14 07:50:00,
2013-05-14 03:55:00,38.3,31.4,30.06,NW,307,5.8,6.1,76,0.00,,---,0.01,VWS V14.01,2013-05-14 07:55:00,
2013-05-14 04:00:00,39.4,32.6,30.05,NNW,335,5.0,6.0,76,0.00,,---,0.01,VWS V14.01,2013-05-14 08:00:00,
2013-05-14 04:05:00,38.2,31.5,30.05,NW,321,4.0,5.7,77,0.00,,---,0.01,VWS V14.01,2013-05-14 08:05:00,
2013-05-14 04:10:00,38.3,31.7,30.05,NNW,343,3.2,4.5,77,0.00,,---,0.01,VWS V14.01,2013-05-14 08:10:00,
2013-05-14 04:15:00,37.8,31.4,30.05,NNW,345,4.2,4.3,77,0.00,,---,0.01,VWS V14.01,2013-05-14 08:15:00,
2013-05-14 04:20:00,38.6,32.2,30.05,NNW,343,4.2,4.4,78,0.00,,---,0.01,VWS V14.01,2013-05-14 08:20:00,
2013-05-14 04:25:00,38.3,31.8,30.05,NNW,345,5.6,5.8,77,0.00,,---,0.01,VWS V14.01,2013-05-14 08:25:00,
2013-05-14 04:30:00,39.2,32.7,30.05,NNW,332,6.4,7.1,77,0.00,,---,0.01,VWS V14.01,2013-05-14 08:30:00,
2013-05-14 04:35:00,39.0,32.4,30.05,NNW,338,5.2,6.6,77,0.00,,---,0.01,VWS V14.01,2013-05-14 08:35:00,
2013-05-14 04:40:00,37.8,31.2,30.05,NNW,328,4.0,5.7,77,0.00,,---,0.01,VWS V14.01,2013-05-14 08:40:00,
2013-05-14 04:45:00,37.8,31.2,30.05,NW,325,4.6,5.8,77,0.00,,---,0.01,VWS V14.01,2013-05-14 08:45:00,
2013-05-14 04:50:00,38.4,31.8,30.05,NW,318,3.9,4.7,77,0.00,,---,0.01,VWS V14.01,2013-05-14 08:50:00,
2013-05-14 04:55:00,38.7,32.2,30.05,NNW,328,3.3,3.6,77,0.00,,---,0.01,VWS V14.01,2013-05-14 08:55:00,
2013-05-14 05:00:00,38.4,31.9,30.06,NW,312,3.1,4.3,77,0.00,,---,0.01,VWS V14.01,2013-05-14 09:00:00,
2013-05-14 05:05:00,38.2,31.8,30.05,NNW,345,2.4,5.2,77,0.00,,---,0.01,VWS V14.01,2013-05-14 09:05:00,
2013-05-14 05:10:00,38.5,32.1,30.05,NNW,339,3.4,4.0,78,0.00,,---,0.01,VWS V14.01,2013-05-14 09:10:00,
2013-05-14 05:15:00,38.9,32.4,30.05,North,349,3.8,5.3,77,0.00,,---,0.01,VWS V14.01,2013-05-14 09:15:00,
2013-05-14 05:20:00,37.9,31.3,30.06,NNW,338,4.2,4.7,77,0.00,,---,0.01,VWS V14.01,2013-05-14 09:20:00,
2013-05-14 05:25:00,38.8,32.2,30.06,NW,322,4.5,4.7,77,0.00,,---,0.01,VWS V14.01,2013-05-14 09:25:00,
2013-05-14 05:30:00,37.6,31.0,30.06,NW,305,4.6,4.9,77,0.00,,---,0.01,VWS V14.01,2013-05-14 09:30:00,
2013-05-14 05:35:00,38.1,31.5,30.06,NW,309,3.0,4.0,77,0.00,,---,0.01,VWS V14.01,2013-05-14 09:35:00,
2013-05-14 05:40:00,38.0,31.4,30.06,NW,322,3.4,3.4,77,0.00,,---,0.01,VWS V14.01,2013-05-14 09:40:00,
2013-05-14 05:45:00,37.9,31.4,30.06,WNW,302,2.7,2.7,77,52.57,,---,0.01,VWS V14.01,2013-05-14 09:45:00,
2013-05-14 05:50:00,38.0,31.5,30.06,NW,315,1.4,2.2,77,0.00,,---,0.01,VWS V14.01,2013-05-14 09:50:00,
2013-05-14 05:55:00,37.8,31.4,30.06,WNW,298,0.0,0.0,77,0.00,,---,0.01,VWS V14.01,2013-05-14 09:55:00,
2013-05-14 06:00:00,38.4,32.0,30.06,NNW,335,0.0,0.0,78,0.00,,---,0.01,VWS V14.01,2013-05-14 10:00:00,
2013-05-14 06:05:00,37.4,31.1,30.06,NW,318,0.9,1.2,78,0.00,,---,0.01,VWS V14.01,2013-05-14 10:05:00,
2013-05-14 06:10:00,37.5,31.3,30.06,NW,309,0.0,0.0,78,0.00,,---,0.01,VWS V14.01,2013-05-14 10:10:00,
2013-05-14 06:15:00,37.6,31.4,30.07,NW,307,0.0,0.0,78,0.00,,---,0.01,VWS V14.01,2013-05-14 10:15:00,
2013-05-14 06:20:00,38.0,31.8,30.07,NNW,338,0.0,0.0,78,0.00,,---,0.01,VWS V14.01,2013-05-14 10:20:00,
2013-05-14 06:25:00,37.6,31.5,30.07,NNW,333,0.0,0.0,78,0.00,,---,0.01,VWS V14.01,2013-05-14 10:25:00,
2013-05-14 06:30:00,37.9,31.8,30.07,NNW,333,0.0,0.0,78,0.00,,---,0.01,VWS V14.01,2013-05-14 10:30:00,
2013-05-14 06:35:00,38.3,32.2,30.07,NW,316,1.8,1.8,79,0.00,,---,0.01,VWS V14.01,2013-05-14 10:35:00,
2013-05-14 06:40:00,38.1,32.0,30.07,NW,323,3.3,3.4,78,0.00,,---,0.01,VWS V14.01,2013-05-14 10:40:00,
2013-05-14 06:45:00,39.0,32.5,30.08,NNW,338,4.7,4.7,77,0.00,,---,0.01,VWS V14.01,2013-05-14 10:45:00,
2013-05-14 06:50:00,39.5,32.0,30.08,NW,322,8.5,9.9,74,0.00,,---,0.01,VWS V14.01,2013-05-14 10:50:00,
2013-05-14 06:55:00,38.9,31.2,30.08,North,359,6.3,6.3,74,0.00,,---,0.01,VWS V14.01,2013-05-14 10:55:00,
2013-05-14 07:00:00,39.8,31.2,30.08,NNW,332,7.8,8.5,71,0.00,,---,0.01,VWS V14.01,2013-05-14 11:00:00,
2013-05-14 07:04:00,39.6,30.9,30.08,NNW,336,5.8,6.8,71,0.00,,---,0.01,VWS V14.01,2013-05-14 11:04:00,
2013-05-14 07:09:00,40.3,31.0,30.08,NNW,343,6.2,8.5,69,0.00,,---,0.01,VWS V14.01,2013-05-14 11:09:00,
2013-05-14 07:14:00,41.1,31.8,30.08,NW,319,5.8,8.6,69,0.00,,---,0.01,VWS V14.01,2013-05-14 11:14:00,
2013-05-14 07:19:00,41.7,31.7,30.08,NNW,332,9.8,9.8,67,0.00,,---,0.01,VWS V14.01,2013-05-14 11:19:00,
2013-05-14 07:24:00,40.8,31.0,30.08,NW,319,6.5,9.7,68,50.15,,---,0.01,VWS V14.01,2013-05-14 11:24:00,
2013-05-14 07:29:00,41.4,31.2,30.08,NW,315,7.9,10.6,67,0.00,,---,0.01,VWS V14.01,2013-05-14 11:29:00,
2013-05-14 07:34:00,41.2,31.3,30.08,NNW,342,6.7,10.4,68,0.00,,---,0.01,VWS V14.01,2013-05-14 11:34:00,
2013-05-14 07:39:00,41.3,31.1,30.08,WNW,301,12.2,12.4,67,0.00,,---,0.01,VWS V14.01,2013-05-14 11:39:00,
2013-05-14 07:44:00,41.6,30.9,30.08,NW,315,10.6,12.1,65,0.00,,---,0.01,VWS V14.01,2013-05-14 11:44:00,
2013-05-14 07:49:00,42.1,31.6,30.08,NNW,330,6.0,10.3,66,0.00,,---,0.01,VWS V14.01,2013-05-14 11:49:00,
2013-05-14 07:54:00,42.0,31.6,30.08,NNW,328,9.6,11.0,66,0.00,,---,0.01,VWS V14.01,2013-05-14 11:54:00,
2013-05-14 07:59:00,42.2,31.4,30.08,North,354,6.9,12.6,65,0.00,,---,0.01,VWS V14.01,2013-05-14 11:59:00,
2013-05-14 08:04:00,42.1,30.2,30.08,NW,316,10.9,12.6,62,0.00,,---,0.01,VWS V14.01,2013-05-14 12:04:00,
2013-05-14 08:09:00,42.9,31.4,30.08,NW,316,7.4,8.8,64,0.00,,---,0.01,VWS V14.01,2013-05-14 12:09:00,
2013-05-14 08:14:00,43.5,31.0,30.08,NNW,335,11.2,12.6,61,0.00,,---,0.01,VWS V14.01,2013-05-14 12:14:00,
2013-05-14 08:19:00,43.3,31.2,30.08,NNW,333,9.3,11.4,62,0.00,,---,0.01,VWS V14.01,2013-05-14 12:19:00,
2013-05-14 08:24:00,43.9,30.9,30.08,NW,308,6.8,10.8,60,50.15,,---,0.01,VWS V14.01,2013-05-14 12:24:00,
2013-05-14 08:29:00,43.0,29.8,30.08,NW,316,10.6,12.7,59,0.00,,---,0.01,VWS V14.01,2013-05-14 12:29:00,
2013-05-14 08:34:00,43.7,30.3,30.08,NNW,335,12.9,12.9,59,0.00,,---,0.01,VWS V14.01,2013-05-14 12:34:00,
2013-05-14 08:39:00,44.6,30.5,30.08,NNW,338,11.5,13.6,57,0.00,,---,0.01,VWS V14.01,2013-05-14 12:39:00,
2013-05-14 08:44:00,45.4,32.1,30.08,NW,321,11.7,12.1,59,0.00,,---,0.01,VWS V14.01,2013-05-14 12:44:00,
2013-05-14 08:49:00,44.2,30.9,30.08,North,357,7.8,10.0,59,0.00,,---,0.01,VWS V14.01,2013-05-14 12:49:00,
2013-05-14 08:54:00,44.8,30.9,30.08,North,352,9.3,10.0,58,0.00,,---,0.01,VWS V14.01,2013-05-14 12:54:00,
2013-05-14 08:59:00,45.9,31.6,30.08,NW,322,7.5,9.4,57,0.00,,---,0.01,VWS V14.01,2013-05-14 12:59:00,
2013-05-14 09:04:00,45.4,29.9,30.08,NNW,335,10.3,11.6,54,0.00,,---,0.01,VWS V14.01,2013-05-14 13:04:00,
2013-05-14 09:09:00,46.2,30.5,30.07,NNW,330,8.9,8.9,54,0.00,,---,0.01,VWS V14.01,2013-05-14 13:09:00,
2013-05-14 09:14:00,46.8,30.7,30.07,NNW,332,7.4,9.8,53,0.00,,---,0.01,VWS V14.01,2013-05-14 13:14:00,
2013-05-14 09:19:00,47.3,32.0,30.07,NNW,330,6.7,8.5,55,0.00,,---,0.01,VWS V14.01,2013-05-14 13:19:00,
2013-05-14 09:24:00,47.3,30.7,30.07,NNW,346,4.7,6.8,52,50.15,,---,0.01,VWS V14.01,2013-05-14 13:24:00,
2013-05-14 09:29:00,47.2,30.8,30.07,WNW,283,11.0,11.6,53,0.00,,---,0.01,VWS V14.01,2013-05-14 13:29:00,
2013-05-14 09:34:00,47.2,29.6,30.07,NW,322,9.7,10.2,50,0.00,,---,0.01,VWS V14.01,2013-05-14 13:34:00,
2013-05-14 09:39:00,47.2,30.0,30.07,NNW,342,8.6,10.1,51,0.00,,---,0.01,VWS V14.01,2013-05-14 13:39:00,
2013-05-14 09:44:00,47.5,28.4,30.07,NNW,328,9.7,11.1,47,0.00,,---,0.01,VWS V14.01,2013-05-14 13:44:00,
2013-05-14 09:49:00,48.1,29.2,30.07,WNW,300,9.4,9.6,48,0.00,,---,0.01,VWS V14.01,2013-05-14 13:49:00,
2013-05-14 09:54:00,48.4,29.9,30.07,WNW,292,8.7,13.5,49,0.00,,---,0.01,VWS V14.01,2013-05-14 13:54:00,
2013-05-14 09:59:00,48.6,28.1,30.07,NW,319,10.6,11.9,45,0.00,,---,0.01,VWS V14.01,2013-05-14 13:59:00,
2013-05-14 10:04:00,48.7,30.1,30.07,WNW,295,7.5,8.4,48,0.00,,---,0.01,VWS V14.01,2013-05-14 14:04:00,
2013-05-14 10:09:00,49.2,29.0,30.07,WNW,300,9.3,13.1,45,0.00,,---,0.01,VWS V14.01,2013-05-14 14:09:00,
2013-05-14 10:14:00,48.7,28.2,30.07,NW,323,11.5,12.2,45,0.00,,---,0.01,VWS V14.01,2013-05-14 14:14:00,
2013-05-14 10:19:00,48.4,27.0,30.07,NW,307,11.8,14.5,43,0.00,,---,0.01,VWS V14.01,2013-05-14 14:19:00,
2013-05-14 10:24:00,49.1,28.8,30.07,NNW,329,10.7,13.2,45,50.15,,---,0.01,VWS V14.01,2013-05-14 14:24:00,
2013-05-14 10:29:00,49.4,29.3,30.07,NNW,335,10.4,11.5,46,0.00,,---,0.01,VWS V14.01,2013-05-14 14:29:00,
2013-05-14 10:34:00,49.1,29.5,30.07,WNW,292,11.5,12.1,46,0.00,,---,0.01,VWS V14.01,2013-05-14 14:34:00,
2013-05-14 10:39:00,49.6,26.8,30.07,NW,312,14.0,16.8,41,0.00,,---,0.01,VWS V14.01,2013-05-14 14:39:00,
2013-05-14 10:44:00,49.5,27.4,30.07,NW,315,6.0,9.7,42,0.00,,---,0.01,VWS V14.01,2013-05-14 14:44:00,
2013-05-14 10:49:00,50.5,29.9,30.07,NW,312,7.2,12.6,45,0.00,,---,0.01,VWS V14.01,2013-05-14 14:49:00,
2013-05-14 10:54:00,50.1,26.1,30.07,WNW,302,8.9,13.8,39,0.00,,---,0.01,VWS V14.01,2013-05-14 14:54:00,
2013-05-14 10:59:00,50.8,26.6,30.06,NW,309,8.4,8.4,39,0.00,,---,0.01,VWS V14.01,2013-05-14 14:59:00,
2013-05-14 11:04:00,50.3,27.9,30.06,West,281,6.5,6.8,42,0.00,,---,0.01,VWS V14.01,2013-05-14 15:04:00,
2013-05-14 11:09:00,50.8,26.6,30.06,WSW,253,5.2,8.8,39,0.00,,---,0.01,VWS V14.01,2013-05-14 15:09:00,
2013-05-14 11:14:00,50.1,27.0,30.06,North,349,13.2,13.2,40,0.00,,---,0.01,VWS V14.01,2013-05-14 15:14:00,
2013-05-14 11:19:00,50.6,25.8,30.06,NW,325,8.0,11.1,38,0.00,,---,0.01,VWS V14.01,2013-05-14 15:19:00,
2013-05-14 11:24:00,50.2,26.1,30.06,NW,326,11.1,12.5,39,0.00,,---,0.01,VWS V14.01,2013-05-14 15:24:00,
2013-05-14 11:29:00,51.3,27.5,30.06,SSE,158,14.6,18.0,39,0.00,,---,0.01,VWS V14.01,2013-05-14 15:29:00,
2013-05-14 11:34:00,50.8,25.2,30.06,NNW,345,6.7,10.3,37,0.00,,---,0.01,VWS V14.01,2013-05-14 15:34:00,
2013-05-14 11:39:00,51.0,27.2,30.05,NW,309,2.7,4.5,39,0.00,,---,0.01,VWS V14.01,2013-05-14 15:39:00,
2013-05-14 11:44:00,51.9,25.9,30.05,NW,305,12.1,12.7,36,0.00,,---,0.01,VWS V14.01,2013-05-14 15:44:00,
2013-05-14 11:49:00,51.5,26.6,30.05,WSW,249,9.7,9.8,38,0.00,,---,0.01,VWS V14.01,2013-05-14 15:49:00,
2013-05-14 11:54:00,52.6,26.2,30.05,WNW,301,6.8,7.6,36,0.00,,---,0.01,VWS V14.01,2013-05-14 15:54:00,
2013-05-14 11:59:00,52.4,25.8,30.05,NW,325,9.0,11.3,35,0.00,,---,0.01,VWS V14.01,2013-05-14 15:59:00,
2013-05-14 12:04:00,50.8,24.8,30.05,NW,315,9.6,11.2,36,0.00,,---,0.01,VWS V14.01,2013-05-14 16:04:00,
2013-05-14 12:09:00,52.1,25.8,30.05,WSW,246,8.8,11.6,36,0.00,,---,0.01,VWS V14.01,2013-05-14 16:09:00,
2013-05-14 12:14:00,52.8,28.0,30.05,West,273,10.4,16.8,38,0.00,,---,0.01,VWS V14.01,2013-05-14 16:14:00,
2013-05-14 12:19:00,52.1,25.0,30.04,WNW,298,10.9,18.5,35,0.00,,---,0.01,VWS V14.01,2013-05-14 16:19:00,
2013-05-14 12:24:00,52.0,24.5,30.05,NNW,340,12.1,12.4,34,0.00,,---,0.01,VWS V14.01,2013-05-14 16:24:00,
2013-05-14 12:29:00,52.0,26.1,30.04,WNW,292,12.7,14.0,36,0.00,,---,0.01,VWS V14.01,2013-05-14 16:29:00,
2013-05-14 12:34:00,52.4,25.2,30.04,WSW,257,8.8,10.6,34,0.00,,---,0.01,VWS V14.01,2013-05-14 16:34:00,
2013-05-14 12:39:00,53.6,25.9,30.04,NW,314,19.8,19.8,34,0.00,,---,0.01,VWS V14.01,2013-05-14 16:39:00,
2013-05-14 12:44:00,51.9,26.5,30.04,WNW,294,5.3,6.0,37,0.00,,---,0.01,VWS V14.01,2013-05-14 16:44:00,
2013-05-14 12:49:00,52.4,24.9,30.04,NW,321,9.1,11.7,34,0.00,,---,0.01,VWS V14.01,2013-05-14 16:49:00,
2013-05-14 12:54:00,53.3,27.2,30.04,NW,309,5.0,9.1,36,0.00,,---,0.01,VWS V14.01,2013-05-14 16:54:00,
2013-05-14 12:59:00,54.1,26.3,30.04,WNW,290,12.3,14.2,34,50.15,,---,0.01,VWS V14.01,2013-05-14 16:59:00,
2013-05-14 13:04:00,53.4,24.5,30.04,WNW,284,9.8,10.9,32,0.00,,---,0.01,VWS V14.01,2013-05-14 17:04:00,
2013-05-14 13:09:00,53.2,25.6,30.04,NW,305,5.1,5.1,34,0.00,,---,0.01,VWS V14.01,2013-05-14 17:09:00,
2013-05-14 13:14:00,53.3,21.9,30.04,NW,321,8.8,12.2,29,0.00,,---,0.01,VWS V14.01,2013-05-14 17:14:00,
2013-05-14 13:19:00,53.3,22.9,30.04,WNW,301,13.4,13.4,30,0.00,,---,0.01,VWS V14.01,2013-05-14 17:19:00,
2013-05-14 13:24:00,53.3,24.1,30.04,NW,318,11.7,11.7,32,0.00,,---,0.01,VWS V14.01,2013-05-14 17:24:00,
2013-05-14 13:29:00,53.6,23.1,30.04,NNW,340,10.8,10.8,30,0.00,,---,0.01,VWS V14.01,2013-05-14 17:29:00,
2013-05-14 13:34:00,54.0,27.0,30.04,West,270,6.2,6.2,35,0.00,,---,0.01,VWS V14.01,2013-05-14 17:34:00,
2013-05-14 13:38:00,54.5,25.9,30.04,West,262,8.0,8.0,33,0.00,,---,0.01,VWS V14.01,2013-05-14 17:38:00,
2013-05-14 13:43:00,53.5,23.7,30.04,NW,311,12.2,12.2,31,0.00,,---,0.01,VWS V14.01,2013-05-14 17:43:00,
2013-05-14 13:48:00,53.5,24.0,30.04,NW,322,13.0,13.0,32,0.00,,---,0.01,VWS V14.01,2013-05-14 17:48:00,
2013-05-14 13:53:00,53.4,22.6,30.04,WNW,290,16.5,16.6,30,0.00,,---,0.01,VWS V14.01,2013-05-14 17:53:00,
2013-05-14 13:58:00,54.5,25.2,30.04,WNW,291,10.1,14.5,32,0.00,,---,0.01,VWS V14.01,2013-05-14 17:58:00,
2013-05-14 14:03:00,54.5,23.8,30.04,West,263,6.6,9.3,30,0.00,,---,0.01,VWS V14.01,2013-05-14 18:03:00,
2013-05-14 14:08:00,54.7,25.3,30.03,NW,325,6.5,9.6,32,0.00,,---,0.01,VWS V14.01,2013-05-14 18:08:00,
2013-05-14 14:13:00,54.1,25.0,30.03,NW,307,3.1,7.6,32,50.15,,---,0.01,VWS V14.01,2013-05-14 18:13:00,
2013-05-14 14:18:00,54.6,23.7,30.02,West,281,6.1,7.8,30,0.00,,---,0.01,VWS V14.01,2013-05-14 18:18:00,
2013-05-14 14:23:00,54.5,24.0,30.03,WNW,288,9.3,11.5,30,0.00,,---,0.01,VWS V14.01,2013-05-14 18:23:00,
2013-05-14 14:28:00,54.7,25.6,30.03,West,269,3.4,7.4,32,0.00,,---,0.01,VWS V14.01,2013-05-14 18:28:00,
2013-05-14 14:33:00,55.4,26.4,30.02,NW,318,3.2,6.1,32,0.00,,---,0.01,VWS V14.01,2013-05-14 18:33:00,
2013-05-14 14:38:00,54.7,24.3,30.02,WNW,283,9.3,10.7,30,0.00,,---,0.01,VWS V14.01,2013-05-14 18:38:00,
2013-05-14 14:43:00,54.9,24.7,30.02,WNW,302,15.3,15.8,31,0.00,,---,0.01,VWS V14.01,2013-05-14 18:43:00,
2013-05-14 14:48:00,54.9,23.7,30.02,NW,309,9.5,13.0,30,0.00,,---,0.01,VWS V14.01,2013-05-14 18:48:00,
2013-05-14 14:53:00,55.1,24.1,30.02,NW,305,7.3,7.6,30,0.00,,---,0.01,VWS V14.01,2013-05-14 18:53:00,
2013-05-14 14:58:00,55.3,25.6,30.02,NW,321,8.8,10.9,32,0.00,,---,0.01,VWS V14.01,2013-05-14 18:58:00,
2013-05-14 15:03:00,54.8,23.0,30.02,NW,323,11.6,12.1,29,0.00,,---,0.01,VWS V14.01,2013-05-14 19:03:00,
2013-05-14 15:08:00,55.0,24.2,30.01,NW,315,6.0,6.0,30,0.00,,---,0.01,VWS V14.01,2013-05-14 19:08:00,
2013-05-14 15:13:00,55.2,24.6,30.02,WNW,284,10.2,12.2,30,0.00,,---,0.01,VWS V14.01,2013-05-14 19:13:00,
2013-05-14 15:18:00,55.5,25.2,30.01,NW,315,7.3,7.9,31,0.00,,---,0.01,VWS V14.01,2013-05-14 19:18:00,
2013-05-14 15:23:00,56.1,25.3,30.01,SW,226,8.1,8.1,30,0.00,,---,0.01,VWS V14.01,2013-05-14 19:23:00,
2013-05-14 15:28:00,56.7,24.6,30.01,WNW,287,7.6,10.4,29,0.00,,---,0.01,VWS V14.01,2013-05-14 19:28:00,
2013-05-14 15:33:00,57.0,23.6,30.01,WSW,256,5.8,9.2,27,0.00,,---,0.01,VWS V14.01,2013-05-14 19:33:00,
2013-05-14 15:38:00,55.6,20.5,30.01,NW,321,9.1,13.1,25,0.00,,---,0.01,VWS V14.01,2013-05-14 19:38:00,
2013-05-14 15:43:00,54.9,20.8,30.00,NW,318,9.0,10.6,26,0.00,,---,0.01,VWS V14.01,2013-05-14 19:43:00,
2013-05-14 15:48:00,55.9,24.7,30.00,NNW,328,6.6,8.7,30,50.15,,---,0.01,VWS V14.01,2013-05-14 19:48:00,
2013-05-14 15:53:00,55.8,23.5,30.00,NW,304,6.8,7.8,28,0.00,,---,0.01,VWS V14.01,2013-05-14 19:53:00,
2013-05-14 15:58:00,55.6,22.2,29.99,NW,325,6.9,7.0,27,0.00,,---,0.01,VWS V14.01,2013-05-14 19:58:00,
2013-05-14 16:03:00,55.7,23.0,30.00,West,278,3.3,6.7,28,0.00,,---,0.01,VWS V14.01,2013-05-14 20:03:00,
2013-05-14 16:08:00,56.6,25.5,29.99,West,260,5.7,5.8,30,0.00,,---,0.01,VWS V14.01,2013-05-14 20:08:00,
2013-05-14 16:13:00,57.1,24.5,30.00,WNW,300,8.2,9.1,28,0.00,,---,0.01,VWS V14.01,2013-05-14 20:13:00,
2013-05-14 16:18:00,57.4,22.6,30.00,West,281,8.6,10.2,26,0.00,,---,0.01,VWS V14.01,2013-05-14 20:18:00,
2013-05-14 16:23:00,56.5,23.5,30.00,NW,312,14.5,15.5,28,0.00,,---,0.01,VWS V14.01,2013-05-14 20:23:00,
2013-05-14 16:28:00,57.0,21.5,29.99,WNW,291,3.4,8.3,25,0.00,,---,0.01,VWS V14.01,2013-05-14 20:28:00,
2013-05-14 16:33:00,57.9,23.7,29.99,NNW,333,6.8,9.4,26,0.00,,---,0.01,VWS V14.01,2013-05-14 20:33:00,
2013-05-14 16:38:00,56.6,21.7,29.98,SW,221,8.3,8.8,26,0.00,,---,0.01,VWS V14.01,2013-05-14 20:38:00,
2013-05-14 16:43:00,57.7,25.0,29.98,WNW,301,8.8,10.9,28,0.00,,---,0.01,VWS V14.01,2013-05-14 20:43:00,
2013-05-14 16:48:00,56.8,22.5,29.99,NW,325,3.9,4.6,26,50.15,,---,0.01,VWS V14.01,2013-05-14 20:48:00,
2013-05-14 16:53:00,57.1,22.3,29.99,West,278,9.8,11.1,26,0.00,,---,0.01,VWS V14.01,2013-05-14 20:53:00,
2013-05-14 16:58:00,57.6,20.6,29.99,North,349,6.2,7.3,24,0.00,,---,0.01,VWS V14.01,2013-05-14 20:58:00,
2013-05-14 17:03:00,57.9,23.2,29.99,NW,319,11.5,11.5,26,0.00,,---,0.01,VWS V14.01,2013-05-14 21:03:00,
2013-05-14 17:08:00,56.9,19.7,29.99,NW,323,4.7,5.5,23,0.00,,---,0.01,VWS V14.01,2013-05-14 21:08:00,
2013-05-14 17:13:00,56.7,19.1,29.99,NNW,330,12.1,15.3,23,0.00,,---,0.01,VWS V14.01,2013-05-14 21:13:00,
2013-05-14 17:18:00,57.9,21.2,29.98,NNW,343,4.2,5.7,24,0.00,,---,0.01,VWS V14.01,2013-05-14 21:18:00,
2013-05-14 17:23:00,57.9,21.2,29.98,NW,304,3.5,6.5,24,50.15,,---,0.01,VWS V14.01,2013-05-14 21:23:00,
2013-05-14 17:28:00,58.2,21.4,29.98,NW,305,7.8,10.0,24,0.00,,---,0.01,VWS V14.01,2013-05-14 21:28:00,
2013-05-14 17:33:00,57.1,21.1,29.98,NW,323,13.2,13.6,24,0.00,,---,0.01,VWS V14.01,2013-05-14 21:33:00,
2013-05-14 17:38:00,57.8,21.1,29.98,NW,315,8.0,8.9,24,0.00,,---,0.01,VWS V14.01,2013-05-14 21:38:00,
2013-05-14 17:43:00,57.7,22.3,29.98,NW,305,10.1,12.9,25,0.00,,---,0.01,VWS V14.01,2013-05-14 21:43:00,
2013-05-14 17:48:00,56.5,20.1,29.98,NW,305,10.1,13.2,24,0.00,,---,0.01,VWS V14.01,2013-05-14 21:48:00,
2013-05-14 17:53:00,57.0,21.9,29.98,NW,321,8.1,12.2,25,0.00,,---,0.01,VWS V14.01,2013-05-14 21:53:00,
2013-05-14 17:58:00,57.4,20.4,29.98,NNW,329,6.3,9.6,24,0.00,,---,0.01,VWS V14.01,2013-05-14 21:58:00,
2013-05-14 18:03:00,57.6,20.8,29.98,WNW,298,6.2,6.8,24,0.00,,---,0.01,VWS V14.01,2013-05-14 22:03:00,
2013-05-14 18:08:00,57.3,19.8,29.97,NNW,338,5.0,5.2,23,0.00,,---,0.01,VWS V14.01,2013-05-14 22:08:00,
2013-05-14 18:13:00,58.5,22.6,29.97,West,273,3.5,4.2,25,0.00,,---,0.01,VWS V14.01,2013-05-14 22:13:00,
2013-05-14 18:18:00,58.4,21.3,29.97,NW,316,12.2,12.4,24,0.00,,---,0.01,VWS V14.01,2013-05-14 22:18:00,
2013-05-14 18:23:00,57.9,21.7,29.97,West,273,3.4,4.6,24,49.78,,---,0.01,VWS V14.01,2013-05-14 22:23:00,
2013-05-14 18:28:00,57.3,21.8,29.97,NW,312,5.7,8.8,25,0.00,,---,0.01,VWS V14.01,2013-05-14 22:28:00,
2013-05-14 18:33:00,58.0,22.1,29.97,WNW,294,4.7,6.5,25,0.00,,---,0.01,VWS V14.01,2013-05-14 22:33:00,
2013-05-14 18:38:00,58.1,22.2,29.98,NW,311,3.6,5.2,25,0.00,,---,0.01,VWS V14.01,2013-05-14 22:38:00,
2013-05-14 18:43:00,58.0,22.2,29.97,NNW,330,2.3,3.4,25,0.00,,---,0.01,VWS V14.01,2013-05-14 22:43:00,
2013-05-14 18:48:00,59.2,24.4,29.98,North,350,3.7,3.7,26,0.00,,---,0.01,VWS V14.01,2013-05-14 22:48:00,
2013-05-14 18:53:00,58.0,23.0,29.98,West,267,6.0,8.5,26,0.00,,---,0.01,VWS V14.01,2013-05-14 22:53:00,
2013-05-14 18:58:00,58.1,23.9,29.98,West,274,4.5,6.2,26,0.00,,---,0.01,VWS V14.01,2013-05-14 22:58:00,
2013-05-14 19:03:00,58.6,23.8,29.98,NW,323,3.4,4.8,26,0.00,,---,0.01,VWS V14.01,2013-05-14 23:03:00,
2013-05-14 19:08:00,58.8,24.0,29.98,SW,225,2.9,4.0,26,0.00,,---,0.01,VWS V14.01,2013-05-14 23:08:00,
2013-05-14 19:13:00,59.1,24.5,29.98,West,281,3.2,4.7,26,0.00,,---,0.01,VWS V14.01,2013-05-14 23:13:00,
2013-05-14 19:18:00,58.5,23.9,29.98,WSW,248,1.4,2.7,26,0.00,,---,0.01,VWS V14.01,2013-05-14 23:18:00,
2013-05-14 19:23:00,58.4,23.5,29.98,NW,307,5.8,7.8,26,0.00,,---,0.01,VWS V14.01,2013-05-14 23:23:00,
2013-05-14 19:28:00,57.5,22.5,29.98,NW,309,5.5,5.8,26,0.00,,---,0.01,VWS V14.01,2013-05-14 23:28:00,
2013-05-14 19:33:00,56.9,21.1,29.98,NNW,340,2.2,3.7,25,0.00,,---,0.01,VWS V14.01,2013-05-14 23:33:00,
2013-05-14 19:38:00,57.8,23.4,29.98,NW,318,1.9,2.3,26,0.00,,---,0.01,VWS V14.01,2013-05-14 23:38:00,
2013-05-14 19:43:00,56.9,22.9,29.98,NW,319,0.5,0.9,27,0.00,,---,0.01,VWS V14.01,2013-05-14 23:43:00,
2013-05-14 19:48:00,57.4,23.3,29.98,WNW,292,3.9,3.9,26,0.00,,---,0.01,VWS V14.01,2013-05-14 23:48:00,
2013-05-14 19:53:00,57.3,24.1,29.98,West,281,2.5,2.5,28,0.00,,---,0.01,VWS V14.01,2013-05-14 23:53:00,
2013-05-14 19:57:00,56.6,23.5,29.98,WNW,290,1.7,1.7,28,49.78,,---,0.01,VWS V14.01,2013-05-14 23:57:00,
2013-05-14 20:02:00,56.4,23.9,29.98,WSW,255,1.6,1.7,28,0.00,,---,0.01,VWS V14.01,2013-05-15 00:02:00,
2013-05-14 20:07:00,55.9,24.1,29.98,South,183,0.6,0.6,29,0.00,,---,0.01,VWS V14.01,2013-05-15 00:07:00,
2013-05-14 20:12:00,55.7,24.5,29.98,West,278,0.0,1.1,30,0.00,,---,0.01,VWS V14.01,2013-05-15 00:12:00,
2013-05-14 20:17:00,55.8,27.5,29.98,West,278,0.0,0.0,34,0.00,,---,0.01,VWS V14.01,2013-05-15 00:17:00,
2013-05-14 20:22:00,55.3,26.9,29.98,West,278,0.0,0.0,33,0.00,,---,0.01,VWS V14.01,2013-05-15 00:22:00,
2013-05-14 20:27:00,54.7,28.2,29.98,West,278,0.0,0.0,36,0.00,,---,0.01,VWS V14.01,2013-05-15 00:27:00,
2013-05-14 20:32:00,53.4,28.6,29.98,West,278,0.0,0.0,38,0.00,,---,0.01,VWS V14.01,2013-05-15 00:32:00,
2013-05-14 20:37:00,53.5,29.9,29.99,West,278,0.0,0.0,40,0.00,,---,0.01,VWS V14.01,2013-05-15 00:37:00,
2013-05-14 20:42:00,52.8,30.0,29.99,West,278,0.0,0.0,41,0.00,,---,0.01,VWS V14.01,2013-05-15 00:42:00,
2013-05-14 20:47:00,52.2,31.1,29.99,West,278,0.0,0.0,44,0.00,,---,0.01,VWS V14.01,2013-05-15 00:47:00,
2013-05-14 20:52:00,51.7,31.7,29.99,West,278,0.0,0.0,46,0.00,,---,0.01,VWS V14.01,2013-05-15 00:52:00,
2013-05-14 20:57:00,51.1,32.0,29.99,West,278,0.0,0.0,48,0.00,,---,0.01,VWS V14.01,2013-05-15 00:57:00,
2013-05-14 21:02:00,51.1,32.6,29.99,West,278,0.0,0.0,49,0.00,,---,0.01,VWS V14.01,2013-05-15 01:02:00,
2013-05-14 21:07:00,49.6,32.0,29.99,West,278,1.0,1.0,50,0.00,,---,0.01,VWS V14.01,2013-05-15 01:07:00,
2013-05-14 21:12:00,49.0,31.9,30.00,NE,44,2.1,2.2,52,0.00,,---,0.01,VWS V14.01,2013-05-15 01:12:00,
2013-05-14 21:17:00,48.6,32.8,30.00,SSE,158,1.1,1.5,54,0.00,,---,0.01,VWS V14.01,2013-05-15 01:17:00,
2013-05-14 21:22:00,48.1,33.2,30.00,SE,127,0.0,0.0,56,0.00,,---,0.01,VWS V14.01,2013-05-15 01:22:00,
2013-05-14 21:23:00,46.0,32.9,30.02,East,101,0.4,0.9,60,0.00,,---,0.02,VWS V14.01,2013-05-15 01:23:00,
2013-05-14 21:27:00,48.1,34.1,30.00,South,170,2.1,2.2,58,0.00,,---,0.01,VWS V14.01,2013-05-15 01:27:00,
2013-05-14 21:32:00,47.0,33.3,30.00,SSE,152,0.8,1.4,59,0.00,,---,0.01,VWS V14.01,2013-05-15 01:32:00,
2013-05-14 21:37:00,47.1,33.8,30.01,SE,132,0.0,0.0,60,0.00,,---,0.01,VWS V14.01,2013-05-15 01:37:00,
2013-05-14 21:42:00,48.0,34.8,30.01,SE,132,0.0,0.0,60,0.00,,---,0.01,VWS V14.01,2013-05-15 01:42:00,
2013-05-14 21:47:00,47.2,34.1,30.01,SE,132,0.0,0.0,60,0.00,,---,0.01,VWS V14.01,2013-05-15 01:47:00,
2013-05-14 21:52:00,46.1,33.5,30.01,SE,132,0.0,0.0,61,0.01,,---,0.02,VWS V14.01,2013-05-15 01:52:00,
2013-05-14 21:57:00,46.0,33.7,30.01,SE,132,0.0,0.0,62,0.01,,---,0.02,VWS V14.01,2013-05-15 01:57:00,
2013-05-14 22:02:00,46.3,34.5,30.02,SE,132,0.0,0.0,63,0.01,,---,0.02,VWS V14.01,2013-05-15 02:02:00,
2013-05-14 22:07:00,46.1,35.2,30.02,SSE,166,3.0,3.0,65,0.01,,---,0.02,VWS V14.01,2013-05-15 02:07:00,
2013-05-14 22:12:00,45.4,34.5,30.02,SE,142,0.0,0.0,65,52.73,,---,0.02,VWS V14.01,2013-05-15 02:12:00,
2013-05-14 22:17:00,45.0,34.2,30.02,SE,142,0.0,0.0,66,0.01,,---,0.02,VWS V14.01,2013-05-15 02:17:00,
2013-05-14 22:22:00,45.3,34.5,30.02,SE,142,0.0,0.0,66,0.01,,---,0.02,VWS V14.01,2013-05-15 02:22:00,
2013-05-14 22:24:00,45.1,34.6,30.02,SW,219,0.0,0.0,66,52.73,,---,0.02,VWS V14.01,2013-05-15 02:24:00,
2013-05-14 22:27:00,45.3,34.5,30.02,SW,219,0.0,0.0,66,0.01,,---,0.02,VWS V14.01,2013-05-15 02:27:00,
2013-05-14 22:32:00,45.1,34.4,30.02,SW,219,0.0,0.0,66,64.07,,---,0.02,VWS V14.01,2013-05-15 02:32:00,
2013-05-14 22:37:00,45.0,34.5,30.02,SW,219,0.0,0.0,66,0.01,,---,0.02,VWS V14.01,2013-05-15 02:37:00,
2013-05-14 22:42:00,45.3,34.8,30.02,SW,219,0.0,0.0,66,0.01,,---,0.02,VWS V14.01,2013-05-15 02:42:00,
2013-05-14 22:47:00,44.8,33.7,30.02,SW,236,1.9,1.9,65,52.73,,---,0.02,VWS V14.01,2013-05-15 02:47:00,
2013-05-14 22:52:00,44.8,33.5,30.02,South,187,0.0,0.0,64,0.01,,---,0.02,VWS V14.01,2013-05-15 02:52:00,
2013-05-14 22:57:00,45.8,33.8,30.03,SW,229,1.6,2.8,63,63.74,,---,0.02,VWS V14.01,2013-05-15 02:57:00,
2013-05-14 23:02:00,44.9,32.4,30.02,SSW,212,0.7,2.7,61,0.00,,---,0.02,VWS V14.01,2013-05-15 03:02:00,
2013-05-14 23:07:00,45.4,32.7,30.02,West,262,0.7,0.9,61,0.00,,---,0.02,VWS V14.01,2013-05-15 03:07:00,
2013-05-14 23:12:00,45.2,32.4,30.02,SSW,197,0.0,0.0,60,0.00,,---,0.02,VWS V14.01,2013-05-15 03:12:00,
2013-05-14 23:17:00,45.3,32.3,30.03,East,101,0.0,0.0,60,0.00,,---,0.02,VWS V14.01,2013-05-15 03:17:00,
2013-05-14 23:22:00,46.1,33.0,30.03,East,101,0.0,0.0,60,0.00,,---,0.02,VWS V14.01,2013-05-15 03:22:00,
2013-05-14 23:27:00,46.0,32.9,30.02,East,101,0.0,0.0,60,0.00,,---,0.02,VWS V14.01,2013-05-15 03:27:00,
2013-05-14 23:32:00,45.8,32.3,30.02,East,101,0.0,0.0,59,0.00,,---,0.02,VWS V14.01,2013-05-15 03:32:00,
2013-05-14 23:37:00,45.4,31.7,30.02,East,101,0.0,0.0,58,0.00,,---,0.02,VWS V14.01,2013-05-15 03:37:00,
2013-05-14 23:42:00,46.3,32.3,30.02,East,101,0.0,0.0,58,0.00,,---,0.02,VWS V14.01,2013-05-15 03:42:00,
2013-05-14 23:47:00,45.6,32.5,30.02,SSW,198,0.0,0.7,60,63.74,,---,0.02,VWS V14.01,2013-05-15 03:47:00,
2013-05-14 23:52:00,45.6,32.2,30.02,WSW,243,1.9,2.3,59,0.00,,---,0.02,VWS V14.01,2013-05-15 03:52:00,
2013-05-14 23:57:00,45.9,32.4,30.03,South,176,1.9,2.1,59,0.00,,---,0.02,VWS V14.01,2013-05-15 03:57:00,